Regional Weather Roundup
Issued by NWS

Home | Current Version | Previous Version | Text Only | Print | Product List | Glossary Off
Versions: 1 2 3 4 5 6 7 8 9 10 11 12 13 14 15 16 17 18 19 20 21 22 23 24 25 26 27 28 29 30 31 32 33 34 35 36 37 38 39 40 41 42 43 44 45 46 47 48 49 50

000
ASUS43 KIND 011209
RWRIN

WEATHER ROUNDUP FOR INDIANA
NATIONAL WEATHER SERVICE INDIANAPOLIS IN
800 AM EDT TUE SEP 01 2015

NOTE: "FAIR" INDICATES FEW OR NO CLOUDS BELOW 12,000 FEET WITH NO
SIGNIFICANT WEATHER AND/OR OBSTRUCTIONS TO VISIBILITY.

* - STATION DOES NOT REPORT WEATHER SUCH AS PRECIPITATION OR FOG.

+ - STATION NOT QUALITY CONTROLLED BY THE NATIONAL WEATHER SERVICE.
    USE DATA WITH CAUTION...ESPECIALLY DEWPOINT AND RELATIVE
    HUMIDITY OBSERVATIONS.

INZ001>003-010>013-019-020-011300-
NORTHWEST INDIANA

CITY           SKY/WX    TMP DP  RH WIND       PRES   REMARKS
GARY /AIRPORT/ PTCLDY    72  68  88 VRB5      30.07R FOG
KNOX *+        CLEAR     66  66 100 S3        30.09R
LA PORTE +     FOG      N/A N/A N/A CALM      30.10R VSB<1/4
MICHIGAN CITY+ PTCLDY    70  70 100 CALM      30.08S FOG
MONTICELLO +   PTCLDY    70  69  98 S5        30.10R
6HR MIN TEMP:  69; 6HR MAX TEMP:  72;

RENSSELAER +   PTCLDY    68  68 100 CALM      30.10R FOG
VALPARAISO     CLEAR     69  67  93 CALM      30.09S FOG
6HR MIN TEMP:  67; 6HR MAX TEMP:  71;


$$

LMZ046-743>745-011300-
SOUTHERN LAKE MICHIGAN

STATION/POSITION TIME  TEMP    WIND        PRES    WAVE
                       AIR SEA DIR/SP/G            HT
                 (UTC) (F)     (DEG/KT/KT) (MB)    (FT)
BURNS HARBOR     1100   72     180/  8/ 11 1018.3S
MICHIGAN CITY    1100   73     150/  9/ 12   N/A
5NW MICH CITY    1200   72 72  180/  8/ 10   N/A     1

$$

INZ004-005-014>016-021>024-011300-
NORTH CENTRAL INDIANA

CITY           SKY/WX    TMP DP  RH WIND       PRES   REMARKS
ELKHART        CLEAR     68  68 100 CALM      30.10R FOG
GOSHEN         CLEAR     69  67  93 S5        30.10S FOG
6HR MIN TEMP:  67; 6HR MAX TEMP:  69;

LOGANSPORT +   PTCLDY    66  63  88 S3        30.12R FOG
PERU/GRISSOM   PTCLDY    69  67  93 S5        30.11R
6HR MIN TEMP:  67; 6HR MAX TEMP:  71;

ROCHESTER +    CLEAR     73  70  88 S3        30.11S
SOUTH BEND     CLEAR     69  67  93 CALM      30.10R FOG
6HR MIN TEMP:  67; 6HR MAX TEMP:  71;

WARSAW +       CLEAR     66  66 100 CALM      30.11S FOG

$$

INZ006>009-017-018-025>027-011300-
NORTHEAST INDIANA

CITY           SKY/WX    TMP DP  RH WIND       PRES   REMARKS
ANGOLA *+      CLOUDY    64  55  72 CALM      30.11S VSB 0
AUBURN +       CLEAR     68  64  88 CALM      30.12S FOG
FORT WAYNE     CLEAR     68  66  93 CALM      30.13R FOG
6HR MIN TEMP:  67; 6HR MAX TEMP:  73;

HUNTINGTON +   CLEAR     68  65  89 S3        30.12S FOG
6HR MIN TEMP:  66; 6HR MAX TEMP:  73;


$$

INZ028-029-035-036-043>045-051>053-011300-
WEST CENTRAL INDIANA

CITY           SKY/WX    TMP DP  RH WIND       PRES   REMARKS
CRAWFORDSVL +  PTCLDY    66  66 100 S5        30.12S
6HR MIN TEMP:  62; 6HR MAX TEMP:  66;

GREENCASTLE +  CLEAR     64  61  88 CALM      30.14S FOG
LAFAYETTE      MOCLDY    70  67  90 CALM      30.10R
6HR MIN TEMP:  67; 6HR MAX TEMP:  70;

TERRE HAUTE    CLOUDY    69  67  93 CALM      30.13R FOG
6HR MIN TEMP:  64; 6HR MAX TEMP:  69;


$$

INZ030>032-037>040-046>048-054>057-064-065-011300-
CENTRAL INDIANA

CITY           SKY/WX    TMP DP  RH WIND       PRES   REMARKS
COLUMBUS       CLEAR     64  63  94 CALM      30.15R FOG
FRANKFORT +    PTCLDY   N/A N/A N/A CALM      30.14R HAZE
GREENWOOD *+   CLEAR     68  64  88 CALM      30.15R
INDIANAPOLIS   PTCLDY    70  66  87 SW3       30.13R
6HR MIN TEMP:  70; 6HR MAX TEMP:  73;

-EAGLE CREEK   CLEAR     69  67  93 CALM      30.13R FOG
6HR MIN TEMP:  68; 6HR MAX TEMP:  72;

KOKOMO *+      PTCLDY    66  63  88 S5        30.13R
6HR MIN TEMP:  64; 6HR MAX TEMP:  70;

MARION +         N/A     65  61  84 CALM      30.14R HAZE
MT COMFORT *+  MOCLDY    68 N/A N/A CALM      30.14R
SHELBYVILLE    CLEAR     68  65  90 CALM      30.14R FOG
6HR MIN TEMP:  65; 6HR MAX TEMP:  68;

ZIONSVILLE +   CLEAR     66  63  91 CALM      30.14S FOG
6HR MIN TEMP:  64; 6HR MAX TEMP:  67;


$$

INZ033-034-041-042-049-050-058-059-011300-
EAST CENTRAL INDIANA

CITY           SKY/WX    TMP DP  RH WIND       PRES   REMARKS
MUNCIE         CLEAR     69  67  93 SW5       30.14R
6HR MIN TEMP:  65; 6HR MAX TEMP:  69;


$$

INZ060-061-067>069-081>083-085>088-011300-
SOUTHWEST INDIANA

CITY           SKY/WX    TMP DP  RH WIND       PRES   REMARKS
EVANSVILLE     PTCLDY    69  67  93 CALM      30.14R
6HR MIN TEMP:  68; 6HR MAX TEMP:  72;

HUNTINGBURG *+ PTCLDY    66  63  88 CALM      30.15R
6HR MIN TEMP:  64; 6HR MAX TEMP:  68;

WASHINGTON +   CLEAR     67  63  87 CALM      30.13S FOG
6HR MIN TEMP:  65; 6HR MAX TEMP:  69;


$$

INZ062-063-066-070>080-084-089>092-011300-
SOUTH CENTRAL AND SOUTHEAST INDIANA

CITY           SKY/WX    TMP DP  RH WIND       PRES   REMARKS
BLOOMINGTON    CLEAR     66  64  93 CALM      30.14S FOG
6HR MIN TEMP:  64; 6HR MAX TEMP:  67;

MADISON *+     CLEAR     63  63 100 CALM      30.18R
NORTH VERNON + PTCLDY    66  66 100 CALM      30.16R FOG
SEYMOUR +      MOCLDY    66  66 100 CALM      30.14R FOG

$$



USA.gov is the U.S. government's official web portal to all federal, state and local government web resources and services.